TimeEST,TemperatureF,Dew PointF,Humidity,Sea Level PressureIn,VisibilityMPH,Wind Direction,Wind SpeedMPH,Gust SpeedMPH,PrecipitationIn,Events,Conditions,WindDirDegrees,DateUTC
12:18 AM,60.8,57.2,88,29.76,10.0,SSW,9.2,19.6,N/A,,Overcast,200,2013-11-18 05:18:00
12:39 AM,60.8,57.2,88,29.75,10.0,SSW,8.1,-,N/A,,Overcast,200,2013-11-18 05:39:00
12:57 AM,60.8,59.0,94,29.73,10.0,SSW,9.2,-,N/A,,Overcast,200,2013-11-18 05:57:00
1:18 AM,62.6,59.0,88,29.72,10.0,SSW,12.7,17.3,N/A,,Overcast,200,2013-11-18 06:18:00
1:39 AM,62.6,59.0,88,29.71,10.0,SSW,12.7,23.0,N/A,,Overcast,210,2013-11-18 06:39:00
2:00 AM,62.6,59.0,88,29.72,10.0,SW,11.5,21.9,N/A,,Overcast,220,2013-11-18 07:00:00
2:18 AM,62.6,59.0,88,29.73,10.0,SW,13.8,21.9,N/A,,Overcast,230,2013-11-18 07:18:00
2:39 AM,55.4,50.0,82,29.79,1.2,WNW,18.4,40.3,N/A,,Overcast,290,2013-11-18 07:39:00
3:00 AM,53.6,50.0,88,29.77,10.0,West,6.9,-,N/A,,Overcast,280,2013-11-18 08:00:00
3:18 AM,51.8,50.0,94,29.76,10.0,WSW,5.8,-,N/A,,Overcast,240,2013-11-18 08:18:00
3:39 AM,51.8,50.0,94,29.75,10.0,WSW,5.8,-,N/A,,Overcast,240,2013-11-18 08:39:00
4:00 AM,53.6,51.8,94,29.75,10.0,WSW,3.5,-,N/A,,Overcast,240,2013-11-18 09:00:00
4:18 AM,51.8,51.8,100,29.76,10.0,SSW,3.5,-,N/A,,Overcast,210,2013-11-18 09:18:00
4:39 AM,51.8,51.8,100,29.75,7.0,SW,3.5,-,N/A,,Mostly Cloudy,220,2013-11-18 09:39:00
5:00 AM,51.8,51.8,100,29.75,5.0,SSW,4.6,-,N/A,,Overcast,210,2013-11-18 10:00:00
5:18 AM,51.8,51.8,100,29.76,5.0,SSW,4.6,-,N/A,,Overcast,210,2013-11-18 10:18:00
5:39 AM,51.8,51.8,100,29.76,7.0,SW,3.5,-,N/A,,Overcast,230,2013-11-18 10:39:00
6:00 AM,51.8,50.0,94,29.76,4.0,SSW,3.5,-,N/A,,Overcast,210,2013-11-18 11:00:00
6:18 AM,51.8,50.0,94,29.77,4.0,SSW,3.5,-,N/A,,Overcast,200,2013-11-18 11:18:00
6:39 AM,51.8,50.0,94,29.78,5.0,South,3.5,-,N/A,,Mostly Cloudy,190,2013-11-18 11:39:00
7:00 AM,51.8,50.0,94,29.78,5.0,Calm,Calm,-,N/A,,Overcast,0,2013-11-18 12:00:00
7:18 AM,51.8,50.0,94,29.79,2.5,WSW,4.6,-,N/A,,Overcast,240,2013-11-18 12:18:00
7:39 AM,51.8,50.0,94,29.79,10.0,WSW,6.9,-,N/A,,Scattered Clouds,250,2013-11-18 12:39:00
8:00 AM,51.8,50.0,94,29.80,10.0,WSW,5.8,-,N/A,,Scattered Clouds,250,2013-11-18 13:00:00
8:18 AM,50.0,48.2,94,29.80,10.0,WSW,5.8,-,N/A,,Scattered Clouds,250,2013-11-18 13:18:00
8:39 AM,53.6,50.0,88,29.81,10.0,WSW,5.8,-,N/A,,Clear,240,2013-11-18 13:39:00
9:00 AM,55.4,50.0,82,29.80,10.0,SSW,4.6,-,N/A,,Clear,210,2013-11-18 14:00:00
9:18 AM,60.8,42.8,52,29.80,10.0,West,11.5,18.4,N/A,,Clear,270,2013-11-18 14:18:00
9:39 AM,62.6,41.0,45,29.80,10.0,West,8.1,-,N/A,,Clear,260,2013-11-18 14:39:00
10:00 AM,62.6,39.2,42,29.80,10.0,West,9.2,-,N/A,,Clear,270,2013-11-18 15:00:00
10:21 AM,64.4,37.4,37,29.80,10.0,West,16.1,24.2,N/A,,Clear,270,2013-11-18 15:21:00
10:39 AM,64.4,33.8,32,29.80,10.0,West,18.4,27.6,N/A,,Clear,280,2013-11-18 15:39:00
11:00 AM,66.2,33.8,30,29.79,10.0,West,10.4,21.9,N/A,,Clear,270,2013-11-18 16:00:00
11:21 AM,68.0,33.8,28,29.78,10.0,West,11.5,18.4,N/A,,Clear,260,2013-11-18 16:21:00
11:39 AM,68.0,33.8,28,29.78,10.0,West,13.8,21.9,N/A,,Clear,270,2013-11-18 16:39:00
12:00 PM,68.0,32.0,26,29.77,10.0,WNW,17.3,25.3,N/A,,Clear,290,2013-11-18 17:00:00
12:21 PM,68.0,32.0,26,29.76,10.0,West,12.7,19.6,N/A,,Clear,270,2013-11-18 17:21:00
1:21 PM,68.0,32.0,26,29.75,10.0,West,19.6,26.5,N/A,,Clear,280,2013-11-18 18:21:00
1:39 PM,68.0,30.2,24,29.75,10.0,West,11.5,24.2,N/A,,Clear,270,2013-11-18 18:39:00
2:00 PM,68.0,28.4,23,29.75,10.0,West,13.8,19.6,N/A,,Clear,280,2013-11-18 19:00:00
2:39 PM,68.0,28.4,23,29.75,10.0,West,10.4,13.8,N/A,,Clear,280,2013-11-18 19:39:00
3:00 PM,66.2,28.4,24,29.75,10.0,West,16.1,20.7,N/A,,Clear,270,2013-11-18 20:00:00
3:21 PM,64.4,23.0,21,29.75,10.0,West,16.1,27.6,N/A,,Clear,260,2013-11-18 20:21:00
4:00 PM,62.6,23.0,22,29.76,10.0,West,13.8,23.0,N/A,,Clear,280,2013-11-18 21:00:00
4:21 PM,62.6,21.2,20,29.77,10.0,West,13.8,25.3,N/A,,Clear,280,2013-11-18 21:21:00
4:39 PM,60.8,23.0,23,29.77,10.0,West,15.0,20.7,N/A,,Clear,280,2013-11-18 21:39:00
5:00 PM,57.2,26.6,31,29.79,10.0,West,8.1,16.1,N/A,,Clear,270,2013-11-18 22:00:00
5:39 PM,55.4,24.8,31,29.81,10.0,WNW,5.8,-,N/A,,Clear,300,2013-11-18 22:39:00
6:21 PM,55.4,26.6,33,29.83,10.0,WNW,11.5,18.4,N/A,,Clear,290,2013-11-18 23:21:00
7:00 PM,55.4,26.6,33,29.85,10.0,West,12.7,18.4,N/A,,Clear,280,2013-11-19 00:00:00
7:21 PM,55.4,26.6,33,29.86,10.0,WNW,15.0,23.0,N/A,,Clear,290,2013-11-19 00:21:00
7:42 PM,55.4,26.6,33,29.87,10.0,WNW,13.8,24.2,N/A,,Clear,290,2013-11-19 00:42:00
8:00 PM,55.4,24.8,31,29.88,10.0,West,8.1,20.7,N/A,,Clear,280,2013-11-19 01:00:00
8:21 PM,53.6,24.8,33,29.89,10.0,West,10.4,-,N/A,,Clear,280,2013-11-19 01:21:00
8:42 PM,53.6,24.8,33,29.89,10.0,West,10.4,-,N/A,,Clear,280,2013-11-19 01:42:00
9:00 PM,53.6,24.8,33,29.90,10.0,West,13.8,19.6,N/A,,Clear,280,2013-11-19 02:00:00
9:21 PM,53.6,24.8,33,29.91,10.0,WNW,11.5,23.0,N/A,,Clear,300,2013-11-19 02:21:00
9:42 PM,51.8,24.8,35,29.92,10.0,WNW,8.1,16.1,N/A,,Clear,300,2013-11-19 02:42:00
10:00 PM,51.8,24.8,35,29.93,10.0,WNW,11.5,18.4,N/A,,Clear,300,2013-11-19 03:00:00
10:21 PM,50.0,24.8,37,29.94,10.0,NW,12.7,19.6,N/A,,Clear,320,2013-11-19 03:21:00
10:42 PM,50.0,24.8,37,29.95,10.0,WNW,8.1,17.3,N/A,,Clear,290,2013-11-19 03:42:00
11:00 PM,50.0,24.8,37,29.95,10.0,WNW,11.5,17.3,N/A,,Clear,300,2013-11-19 04:00:00
11:21 PM,48.2,26.6,43,29.95,10.0,WNW,13.8,19.6,N/A,,Clear,290,2013-11-19 04:21:00
11:42 PM,48.2,26.6,43,29.95,10.0,NW,9.2,18.4,N/A,,Clear,310,2013-11-19 04:42:00